Regional Weather Roundup
Issued by NWS

Home | Current Version | Previous Version | Graphics & Text | Print | Product List | Glossary On
Versions: 1 2 3 4 5 6 7 8 9 10 11 12 13 14 15 16 17 18 19 20 21 22 23 24 25 26 27 28 29 30 31 32 33 34 35 36 37 38 39 40 41 42 43 44 45 46 47 48 49 50
718
ASUS43 KMKX 231520
RWRWI

WISCONSIN REGIONAL WEATHER ROUNDUP
NATIONAL WEATHER SERVICE MILWAUKEE/SULLIVAN WI
900 AM CST TUE JAN 23 2018

NOTE: "FAIR" INDICATES FEW OR NO CLOUDS BELOW 12,000 FEET WITH NO
SIGNIFICANT WEATHER AND/OR OBSTRUCTIONS TO VISIBILITY.

WIZ001-002-006>008-014>016-023>028-231600-
NORTHWEST WISCONSIN

CITY           SKY/WX    TMP DP  RH WIND       PRES   REMARKS
SUPERIOR ARPT  CLOUDY     9   1  71 NW5       30.04R WCI   1
ASHLAND        CLOUDY    18  13  80 N8        29.98R HAZE    WCI   8
HAYWARD        FLURRIES  18  13  80 N7        29.94R WCI   9
SIREN          PTSUNNY   14   7  73 N8        30.01R WCI   3
CUMBERLAND     CLOUDY    14   9  79 NW15      29.94R WCI  -1
RICE LAKE      CLOUDY    17  13  84 N14       29.95R WCI   3
CHETEK         CLOUDY    18  15  86 N7        29.93R WCI   9
LADYSMITH      CLOUDY    19  17  89 N13G20    29.91R WCI   7
EAU CLAIRE     CLOUDY    20  16  84 N12G18    29.92R WCI   8
MENOMONIE      CLOUDY    20  14  78 NW12      29.95R WCI   8
NEW RICHMOND   CLOUDY    15  10  78 NW12      29.98R WCI   2
OSCEOLA        CLOUDY    17  10  77 NW12      30.02R WCI   4
$$

WIZ003>005-009-010-017-018-231600-
NORTH CENTRAL WISCONSIN

CITY           SKY/WX    TMP DP  RH WIND       PRES   REMARKS
MANITOWISH WTR LGT SNOW  16  16 100 N14G21    29.84R WCI   1
ARBOR VITAE    LGT SNOW  19  17  90 N21       29.82R WCI   3
WOODRUFF       LGT SNOW  19  17  90 N21       29.82R WCI   3
RHINELANDER    CLOUDY    18  15  88 N15G23    29.80R WCI   4
EAGLE RIVER    LGT SNOW  18  17  95 N14G21    29.79R WCI   4
LAND O LAKES   CLOUDY    18  16  93 N15G21    29.82R FOG     WCI   3
PHILLIPS       CLOUDY    17  15  93 N10       29.85R WCI   4
TOMAHAWK       CLOUDY    18  14  86 N12G20    29.82R WCI   5
MEDFORD        CLOUDY    18  15  87 N17       29.82R WCI   3
MERRILL        CLOUDY    19  16  87 N10G25    29.81R WCI   8
$$

WIZ029-030-035-036-043>047-231600-
CENTRAL WISCONSIN

CITY           SKY/WX    TMP DP  RH WIND       PRES   REMARKS
WAUSAU         CLOUDY    20  16  84 N13G28    29.78R WCI   7
MOSINEE        CLOUDY    19  18  93 N17G25    29.80R WCI   4
MARSHFIELD     CLOUDY    21  18  88 N15G26    29.81R WCI   8
STEVENS POINT  CLOUDY    21  18  91 NW12G22   29.80R FOG     WCI   9
WAUPACA        CLOUDY    27  22  79 NW9       29.78R WCI  18
WAUTOMA        FLURRIES  24  19  81 MISG        N/A
WISC RAPIDS    NOT AVBL
CAMP DOUGLAS   FLURRIES  25  21  86 NW18      29.82R WCI  11
$$

WIZ011>013-019>022-031-037>040-048>050-231600-
NORTHEAST WISCONSIN

CITY           SKY/WX    TMP DP  RH WIND       PRES   REMARKS
ANTIGO         CLOUDY    19  17  90 N16G29    29.75R FOG     WCI   4
SHAWANO        CLOUDY    27  21  77 NW9       29.76R WCI  18
OCONTO         CLOUDY    24  20  83 N9G20     29.73R WCI  15
STURGEON BAY   FLURRIES  25  22  88 N18       29.70R WCI  11
GREEN BAY      CLOUDY    26  20  77 N13       29.74R WCI  15
MANITOWOC      LGT SNOW  26  22  84 N15G24    29.72R FOG     WCI  14
APPLETON       CLOUDY    25  18  74 NW10      29.72R WCI  15
CLINTONVILLE   FLURRIES  27  19  74 N10G16    29.76R WCI  17
OSHKOSH        CLOUDY    26  21  81 NW13      29.76R WCI  15
$$

WIZ032>034-041-042-053>061-231600-
SOUTHWEST WISCONSIN

CITY           SKY/WX    TMP DP  RH WIND       PRES   REMARKS
LA CROSSE      CLOUDY    25  20  81 N17       29.90R WCI  12
SPARTA         CLOUDY    23  20  89 NW12      29.89R WCI  12
VIROQUA        CLOUDY    24  24  98 N12       29.83R WCI  13
BOSCOBEL       CLOUDY    29  22  75 NW9G20    29.87R WCI  20
PRAIRIE DU CHI CLOUDY    28  22  79 NW15      29.89R WCI  16
PLATTEVILLE    CLOUDY    28  25  91 NW12G21   29.84R WCI  17
$$

WIZ056-057-062-063-064-067-068-231600-
SOUTH CENTRAL WISCONSIN

CITY           SKY/WX    TMP DP  RH WIND       PRES   REMARKS
REEDSBURG      FLURRIES  25  22  87 NW10G23   29.81R WCI  15
BARABOO/DELLS  FLURRIES  25  21  86 NW10G18   29.80R WCI  15
LONE ROCK      CLOUDY    28  22  78 NW9       29.84R WCI  19
MINERAL POINT  CLOUDY    28  27  93 NW9G16    29.81R WCI  20
MADISON        FLURRIES  26  21  81 NW10G22   29.79R WCI  16
MIDDLETON      CLOUDY    28  23  81 NW15G23   29.80R WCI  17
WATERTOWN      CLOUDY    26  25  96 NW12G17   29.75R WCI  15
MONROE         CLOUDY    28  21  74 NW14G21   29.78R WCI  17
JANESVILLE     CLOUDY    28  28 100 NW17G23   29.77R WCI  16
$$

WIZ051-052-058>065-066-070>072-231600-
SOUTHEAST WISCONSIN

CITY           SKY/WX    TMP DP  RH WIND       PRES   REMARKS
MILWAUKEE      CLOUDY    30  23  75 NW13G23   29.73R WCI  20
WAUKESHA       CLOUDY    25  21  86 NW15      29.73R WCI  12
MILWAUKEE/TIMM CLOUDY    28  21  74 NW14G21   29.73R WCI  17
RACINE         CLOUDY    29  25  85 NW13      29.73R WCI  19
BURLINGTON     CLOUDY    28  23  84 NW12      29.74R WCI  17
KENOSHA        CLOUDY    30  25  81 NW15G24   29.72R WCI  19
FOND DU LAC    FLURRIES  27  20  75 NW18      29.75R WCI  14
SHEBOYGAN      LGT SNOW  27  23  85 N12G21    29.72R FOG     WCI  17
WEST BEND      CLOUDY    27  25  93 NW13G18   29.73R WCI  16
JUNEAU         CLOUDY    25  21  84 NW13G18   29.76R WCI  14
$$

LSZ147-162-231600-
LAKE SUPERIOR

STATION/POSITION TIME  TEMP    WIND        PRES    WAVE
                       AIR SEA DIR/SP/G            HT/PER
                 (UTC) (F)     (DEG/KT/KT) (MB)    (FT/S)
DEVILS ISLAND    1500   21      30/ 14/ 18 1016.6R
SAXON HARBOR     1440   21      20/ 12/ 17 1014.2R
$$

LMZ867-665-643>646-231600-
LAKE MICHIGAN

STATION/POSITION TIME  TEMP    WIND        PRES    WAVE
                       AIR SEA DIR/SP/G            HT/PER
                 (UTC) (F)     (DEG/KT/KT) (MB)    (FT/S)
NORTHPORT PIER   1440   24     340/  8/ 13 1005.1R
KEWAUNEE LAKESHO 1454   26     350/ 11/ 18 1005.1R
SHEBOYGAN LAKESH 1500   27     330/ 18/ 21 1006.8R
PORT WASHINGTON  1500   27     330/  7/ 18 1008.1
MILWAUKEE LAKESH 1500   27     340/ 17/ 22   N/A
KENOSHA   LAKESH 1500   29     310/  9/ 13 1007.1
$$

TC  - TEMPERATURE IN CELSIUS
VSB - VISIBILITY IN STATUTE MILES
WCI - WIND CHILL INDEX
HX  - HEAT INDEX





USA.gov is the U.S. government's official web portal to all federal, state and local government web resources and services.